User: anonymous   Login
Location: Clatteringshaws Loch
(55.0508°N, 4.2860°W)
Time: 22:37:01
(UTC+00:00)
Language:

ALOS - Orbit

View from above orbital plane
View from above orbital plane
View from above satellite
View from above satellite

Ground track
Ground track

The orbit data is extracted from the following two-line orbital elements,

1 28931U 06002A   15061.56603635  .00000815  00000-0  17259-3 0  9999
2 28931 097.9485 115.1679 0002369 090.0132 270.1343 14.61700393485069
Epoch (UTC): 02 March 2015 13:35:05
Eccentricity: 0.0002369
inclination: 97.9485°
perigee height: 686 km
apogee height: 689 km
right ascension of ascending node: 115.1679°
argument of perigee: 90.0132°
revolutions per day: 14.61700393
mean anomaly at epoch: 270.1343°
orbit number at epoch: 48506

The dashed part of the orbit path shows where the satellite is in the earth's shadow,  

DLR